2023-10-12T00:00:00,hld,4.13
2023-10-12T00:01:00,hld,4.12
2023-10-12T00:02:00,hld,4.87
2023-10-12T00:03:00,hld,4.15
2023-10-12T00:04:00,hld,4.17
2023-10-12T00:05:00,hld,4.10
2023-10-12T00:06:00,hld,4.13
2023-10-12T00:07:00,hld,4.11
2023-10-12T00:08:00,hld,4.12
2023-10-12T00:09:00,hld,4.08
2023-10-12T00:10:00,hld,8.18
2023-10-12T00:11:00,hld,8.18
2023-10-12T00:12:00,hld,8.34
2023-10-12T00:13:00,hld,4.07
2023-10-12T00:14:00,hld,4.07
2023-10-12T00:15:00,hld,4.09
2023-10-12T00:16:00,hld,4.06
2023-10-12T00:17:00,hld,4.07
2023-10-12T00:18:00,hld,4.08
2023-10-12T00:19:00,hld,4.08
2023-10-12T00:20:00,hld,4.07
2023-10-12T00:21:00,hld,4.07
2023-10-12T00:22:00,hld,12.61
2023-10-12T00:23:00,hld,12.46
2023-10-12T00:24:00,hld,12.32
2023-10-12T00:25:00,hld,12.18
2023-10-12T00:26:00,hld,12.09
2023-10-12T00:27:00,hld,4.07
2023-10-12T00:28:00,hld,4.07
2023-10-12T00:29:00,hld,4.07
2023-10-12T00:30:00,hld,4.08
2023-10-12T00:31:00,hld,4.07
2023-10-12T00:32:00,hld,4.23
2023-10-12T00:33:00,hld,4.23
2023-10-12T00:34:00,hld,4.21
2023-10-12T00:35:00,hld,4.21
2023-10-12T00:36:00,hld,4.20
2023-10-12T00:37:00,hld,4.21
2023-10-12T00:38:00,hld,4.20
2023-10-12T00:39:00,hld,5.69
2023-10-12T00:40:00,hld,4.19
2023-10-12T00:41:00,hld,4.85
2023-10-12T00:42:00,hld,4.20
2023-10-12T00:43:00,hld,4.19
2023-10-12T00:44:00,hld,4.19
2023-10-12T00:45:00,hld,4.22
2023-10-12T00:46:00,hld,4.19
2023-10-12T00:47:00,hld,4.08
2023-10-12T00:48:00,hld,4.06
2023-10-12T00:49:00,hld,4.08
2023-10-12T00:50:00,hld,4.10
2023-10-12T00:51:00,hld,4.09
2023-10-12T00:52:00,hld,4.07
2023-10-12T00:53:00,hld,4.07
2023-10-12T00:54:00,hld,4.08
2023-10-12T00:55:00,hld,4.07
2023-10-12T00:56:00,hld,4.22
2023-10-12T00:57:00,hld,4.21
2023-10-12T00:58:00,hld,4.21
2023-10-12T00:59:00,hld,4.21
2023-10-12T01:00:00,hld,4.19
2023-10-12T01:01:00,hld,4.20
2023-10-12T01:02:00,hld,4.21
2023-10-12T01:03:00,hld,4.21
2023-10-12T01:04:00,hld,4.18
2023-10-12T01:05:00,hld,4.19
2023-10-12T01:06:00,hld,4.07
2023-10-12T01:07:00,hld,4.07
2023-10-12T01:08:00,hld,4.06
2023-10-12T01:09:00,hld,4.24
2023-10-12T01:10:00,hld,4.07
2023-10-12T01:11:00,hld,4.07
2023-10-12T01:12:00,hld,4.07
2023-10-12T01:13:00,hld,4.08
2023-10-12T01:14:00,hld,4.07
2023-10-12T01:15:00,hld,4.07
2023-10-12T01:16:00,hld,4.06
2023-10-12T01:17:00,hld,4.07
2023-10-12T01:18:00,hld,4.05
2023-10-12T01:19:00,hld,4.06
2023-10-12T01:20:00,hld,4.07
2023-10-12T01:21:00,hld,4.07
2023-10-12T01:22:00,hld,4.08
2023-10-12T01:23:00,hld,4.06
2023-10-12T01:24:00,hld,4.06
2023-10-12T01:25:00,hld,4.07
2023-10-12T01:26:00,hld,4.07
2023-10-12T01:27:00,hld,4.07
2023-10-12T01:28:00,hld,4.06
2023-10-12T01:29:00,hld,4.07
2023-10-12T01:30:00,hld,4.06
2023-10-12T01:31:00,hld,4.29
2023-10-12T01:32:00,hld,4.05
2023-10-12T01:33:00,hld,4.09
2023-10-12T01:34:00,hld,4.08
2023-10-12T01:35:00,hld,4.10
2023-10-12T01:36:00,hld,4.08
2023-10-12T01:37:00,hld,4.55
2023-10-12T01:38:00,hld,4.08
2023-10-12T01:39:00,hld,4.08
2023-10-12T01:40:00,hld,4.54
2023-10-12T01:41:00,hld,4.09
2023-10-12T01:42:00,hld,4.21
2023-10-12T01:43:00,hld,4.20
2023-10-12T01:44:00,hld,4.19
2023-10-12T01:45:00,hld,4.20
2023-10-12T01:46:00,hld,4.19
2023-10-12T01:47:00,hld,4.22
2023-10-12T01:48:00,hld,4.21
2023-10-12T01:49:00,hld,4.20
2023-10-12T01:50:00,hld,4.19
2023-10-12T01:51:00,hld,4.07
2023-10-12T01:52:00,hld,4.08
2023-10-12T01:53:00,hld,4.09
2023-10-12T01:54:00,hld,4.08
2023-10-12T01:55:00,hld,4.08
2023-10-12T01:56:00,hld,4.08
2023-10-12T01:57:00,hld,4.08
2023-10-12T01:58:00,hld,4.07
2023-10-12T01:59:00,hld,4.08
2023-10-12T02:00:00,hld,4.06
2023-10-12T02:01:00,hld,4.21
2023-10-12T02:02:00,hld,4.21
2023-10-12T02:03:00,hld,4.21
2023-10-12T02:04:00,hld,4.21
2023-10-12T02:05:00,hld,4.19
2023-10-12T02:06:00,hld,4.19
2023-10-12T02:07:00,hld,4.20
2023-10-12T02:08:00,hld,4.20
2023-10-12T02:09:00,hld,4.20
2023-10-12T02:10:00,hld,4.19
2023-10-12T02:11:00,hld,4.20
2023-10-12T02:12:00,hld,4.21
2023-10-12T02:13:00,hld,4.21
2023-10-12T02:14:00,hld,4.20
2023-10-12T02:15:00,hld,4.14
2023-10-12T02:16:00,hld,4.02
2023-10-12T02:17:00,hld,4.02
2023-10-12T02:18:00,hld,4.01
2023-10-12T02:19:00,hld,4.02
2023-10-12T02:20:00,hld,5.52
2023-10-12T02:21:00,hld,4.02
2023-10-12T02:22:00,hld,4.53
2023-10-12T02:23:00,hld,4.02
2023-10-12T02:24:00,hld,4.02
2023-10-12T02:25:00,hld,4.03
2023-10-12T02:26:00,hld,4.06
2023-10-12T02:27:00,hld,4.02
2023-10-12T02:28:00,hld,4.02
2023-10-12T02:29:00,hld,4.02
2023-10-12T02:30:00,hld,4.25
2023-10-12T02:31:00,hld,4.02
2023-10-12T02:32:00,hld,4.01
2023-10-12T02:33:00,hld,4.02
2023-10-12T02:34:00,hld,4.02
2023-10-12T02:35:00,hld,4.02
2023-10-12T02:36:00,hld,4.02
2023-10-12T02:37:00,hld,4.08
2023-10-12T02:38:00,hld,4.03
2023-10-12T02:39:00,hld,4.02
2023-10-12T02:40:00,hld,4.02
2023-10-12T02:41:00,hld,4.09
2023-10-12T02:42:00,hld,4.02
2023-10-12T02:43:00,hld,4.16
2023-10-12T02:44:00,hld,4.16
2023-10-12T02:45:00,hld,4.16
2023-10-12T02:46:00,hld,4.82
2023-10-12T02:47:00,hld,4.15
2023-10-12T02:48:00,hld,4.14
2023-10-12T02:49:00,hld,4.24
2023-10-12T02:50:00,hld,4.17
2023-10-12T02:51:00,hld,4.07
2023-10-12T02:52:00,hld,4.07
2023-10-12T02:53:00,hld,4.06
2023-10-12T02:54:00,hld,4.07
2023-10-12T02:55:00,hld,4.05
2023-10-12T02:56:00,hld,4.05
2023-10-12T02:57:00,hld,4.06
2023-10-12T02:58:00,hld,4.06
2023-10-12T02:59:00,hld,4.07
2023-10-12T03:00:00,hld,4.06
2023-10-12T03:01:00,hld,4.16
2023-10-12T03:02:00,hld,4.12
2023-10-12T03:03:00,hld,4.13
2023-10-12T03:04:00,hld,4.21
2023-10-12T03:05:00,hld,4.08
2023-10-12T03:06:00,hld,4.14
2023-10-12T03:07:00,hld,4.15
2023-10-12T03:08:00,hld,4.19
2023-10-12T03:09:00,hld,4.19
2023-10-12T03:10:00,hld,4.15
2023-10-12T03:11:00,hld,4.14
2023-10-12T03:12:00,hld,4.16
2023-10-12T03:13:00,hld,4.14
2023-10-12T03:14:00,hld,4.14
2023-10-12T03:15:00,hld,4.13
2023-10-12T03:16:00,hld,4.15
2023-10-12T03:17:00,hld,4.15
2023-10-12T03:18:00,hld,4.31
2023-10-12T03:19:00,hld,4.26
2023-10-12T03:20:00,hld,4.29
2023-10-12T03:21:00,hld,4.28
2023-10-12T03:22:00,hld,4.29
2023-10-12T03:23:00,hld,4.28
2023-10-12T03:24:00,hld,4.26
2023-10-12T03:25:00,hld,4.28
2023-10-12T03:26:00,hld,4.35
2023-10-12T03:27:00,hld,4.28
2023-10-12T03:28:00,hld,4.27
2023-10-12T03:29:00,hld,4.26
2023-10-12T03:30:00,hld,4.27
2023-10-12T03:31:00,hld,4.26
2023-10-12T03:32:00,hld,4.27
2023-10-12T03:33:00,hld,4.16
2023-10-12T03:34:00,hld,4.54
2023-10-12T03:35:00,hld,4.15
2023-10-12T03:36:00,hld,4.15
2023-10-12T03:37:00,hld,4.12
2023-10-12T03:38:00,hld,4.13
2023-10-12T03:39:00,hld,4.73
2023-10-12T03:40:00,hld,4.14
2023-10-12T03:41:00,hld,4.15
2023-10-12T03:42:00,hld,4.14
2023-10-12T03:43:00,hld,4.09
2023-10-12T03:44:00,hld,4.09
2023-10-12T03:45:00,hld,4.10
2023-10-12T03:46:00,hld,4.10
2023-10-12T03:47:00,hld,4.10
2023-10-12T03:48:00,hld,4.11
2023-10-12T03:49:00,hld,4.44
2023-10-12T03:50:00,hld,4.22
2023-10-12T03:51:00,hld,4.22
2023-10-12T03:52:00,hld,4.21
2023-10-12T03:53:00,hld,4.23
2023-10-12T03:54:00,hld,4.21
2023-10-12T03:55:00,hld,4.20
2023-10-12T03:56:00,hld,4.20
2023-10-12T03:57:00,hld,4.07
2023-10-12T03:58:00,hld,4.09
2023-10-12T03:59:00,hld,4.79
2023-10-12T04:00:00,hld,4.09
2023-10-12T04:01:00,hld,6.31
2023-10-12T04:02:00,hld,4.08
2023-10-12T04:03:00,hld,4.08
2023-10-12T04:04:00,hld,4.18
2023-10-12T04:05:00,hld,4.22
2023-10-12T04:06:00,hld,4.24
2023-10-12T04:07:00,hld,4.23
2023-10-12T04:08:00,hld,4.25
2023-10-12T04:09:00,hld,4.20
2023-10-12T04:10:00,hld,8.32
2023-10-12T04:11:00,hld,8.60
2023-10-12T04:12:00,hld,10.02
2023-10-12T04:13:00,hld,18.58
2023-10-12T04:14:00,hld,14.30
2023-10-12T04:15:00,hld,12.92
2023-10-12T04:16:00,hld,12.64
2023-10-12T04:17:00,hld,12.55
2023-10-12T04:18:00,hld,4.55
2023-10-12T04:19:00,hld,4.59
2023-10-12T04:20:00,hld,4.58
2023-10-12T04:21:00,hld,4.57
2023-10-12T04:22:00,hld,4.57
2023-10-12T04:23:00,hld,4.54
2023-10-12T04:24:00,hld,4.54
2023-10-12T04:25:00,hld,4.54
2023-10-12T04:26:00,hld,4.56
2023-10-12T04:27:00,hld,4.61
2023-10-12T04:28:00,hld,4.77
2023-10-12T04:29:00,hld,5.45
2023-10-12T04:30:00,hld,4.74
2023-10-12T04:31:00,hld,4.70
2023-10-12T04:32:00,hld,4.85
2023-10-12T04:33:00,hld,4.87
2023-10-12T04:34:00,hld,4.84
2023-10-12T04:35:00,hld,4.83
2023-10-12T04:36:00,hld,4.83
2023-10-12T04:37:00,hld,4.88
2023-10-12T04:38:00,hld,4.90
2023-10-12T04:39:00,hld,4.88
2023-10-12T04:40:00,hld,4.89
2023-10-12T04:41:00,hld,4.88
2023-10-12T04:42:00,hld,4.88
2023-10-12T04:43:00,hld,4.88
2023-10-12T04:44:00,hld,4.85
2023-10-12T04:45:00,hld,4.82
2023-10-12T04:46:00,hld,4.59
2023-10-12T04:47:00,hld,4.54
2023-10-12T04:48:00,hld,5.19
2023-10-12T04:49:00,hld,4.56
2023-10-12T04:50:00,hld,4.55
2023-10-12T04:51:00,hld,4.51
2023-10-12T04:52:00,hld,4.57
2023-10-12T04:53:00,hld,4.58
2023-10-12T04:54:00,hld,4.46
2023-10-12T04:55:00,hld,4.46
2023-10-12T04:56:00,hld,4.60
2023-10-12T04:57:00,hld,4.59
2023-10-12T04:58:00,hld,4.59
2023-10-12T04:59:00,hld,4.57
2023-10-12T05:00:00,hld,4.58
2023-10-12T05:01:00,hld,4.57
2023-10-12T05:02:00,hld,4.54
2023-10-12T05:03:00,hld,4.53
2023-10-12T05:04:00,hld,4.53
2023-10-12T05:05:00,hld,4.43
2023-10-12T05:06:00,hld,4.41
2023-10-12T05:07:00,hld,4.44
2023-10-12T05:08:00,hld,4.41
2023-10-12T05:09:00,hld,4.42
2023-10-12T05:10:00,hld,4.11
2023-10-12T05:11:00,hld,4.07
2023-10-12T05:12:00,hld,4.07
2023-10-12T05:13:00,hld,4.05
2023-10-12T05:14:00,hld,4.08
2023-10-12T05:15:00,hld,4.07
2023-10-12T05:16:00,hld,4.07
2023-10-12T05:17:00,hld,4.08
2023-10-12T05:18:00,hld,4.09
2023-10-12T05:19:00,hld,4.09
2023-10-12T05:20:00,hld,4.11
2023-10-12T05:21:00,hld,4.10
2023-10-12T05:22:00,hld,4.10
2023-10-12T05:23:00,hld,4.08
2023-10-12T05:24:00,hld,4.10
2023-10-12T05:25:00,hld,4.11
2023-10-12T05:26:00,hld,4.10
2023-10-12T05:27:00,hld,4.09
2023-10-12T05:28:00,hld,4.11
2023-10-12T05:29:00,hld,4.09
2023-10-12T05:30:00,hld,4.09
2023-10-12T05:31:00,hld,4.10
2023-10-12T05:32:00,hld,4.09
2023-10-12T05:33:00,hld,4.07
2023-10-12T05:34:00,hld,4.09
2023-10-12T05:35:00,hld,4.09
2023-10-12T05:36:00,hld,4.09
2023-10-12T05:37:00,hld,4.10
2023-10-12T05:38:00,hld,4.09
2023-10-12T05:39:00,hld,4.07
2023-10-12T05:40:00,hld,4.07
2023-10-12T05:41:00,hld,4.08
2023-10-12T05:42:00,hld,4.21
2023-10-12T05:43:00,hld,4.77
2023-10-12T05:44:00,hld,4.19
2023-10-12T05:45:00,hld,4.20
2023-10-12T05:46:00,hld,4.19
2023-10-12T05:47:00,hld,4.23
2023-10-12T05:48:00,hld,4.20
2023-10-12T05:49:00,hld,4.19
2023-10-12T05:50:00,hld,4.21
2023-10-12T05:51:00,hld,4.20
2023-10-12T05:52:00,hld,4.19
2023-10-12T05:53:00,hld,4.19
2023-10-12T05:54:00,hld,4.08
2023-10-12T05:55:00,hld,4.07
2023-10-12T05:56:00,hld,4.77
2023-10-12T05:57:00,hld,4.17
2023-10-12T05:58:00,hld,4.47
2023-10-12T05:59:00,hld,4.47
2023-10-12T06:00:00,hld,4.46
2023-10-12T06:01:00,hld,4.50
2023-10-12T06:02:00,hld,4.46
2023-10-12T06:03:00,hld,4.44
2023-10-12T06:04:00,hld,4.61
2023-10-12T06:05:00,hld,4.61
2023-10-12T06:06:00,hld,4.57
2023-10-12T06:07:00,hld,4.58
2023-10-12T06:08:00,hld,6.59
2023-10-12T06:09:00,hld,7.42
2023-10-12T06:10:00,hld,7.79
2023-10-12T06:11:00,hld,7.82
2023-10-12T06:12:00,hld,7.74
2023-10-12T06:13:00,hld,7.66
2023-10-12T06:14:00,hld,6.82
2023-10-12T06:15:00,hld,6.91
2023-10-12T06:16:00,hld,6.91
2023-10-12T06:17:00,hld,16.49
2023-10-12T06:18:00,hld,6.88
2023-10-12T06:19:00,hld,5.67
2023-10-12T06:20:00,hld,5.76
2023-10-12T06:21:00,hld,5.69
2023-10-12T06:22:00,hld,5.70
2023-10-12T06:23:00,hld,4.54
2023-10-12T06:24:00,hld,4.47
2023-10-12T06:25:00,hld,5.01
2023-10-12T06:26:00,hld,4.70
2023-10-12T06:27:00,hld,4.66
2023-10-12T06:28:00,hld,3.82
2023-10-12T06:29:00,hld,4.70
2023-10-12T06:30:00,hld,4.70
2023-10-12T06:31:00,hld,3.84
2023-10-12T06:32:00,hld,4.68
2023-10-12T06:33:00,hld,6.01
2023-10-12T06:34:00,hld,4.54
2023-10-12T06:35:00,hld,4.59
2023-10-12T06:36:00,hld,3.62
2023-10-12T06:37:00,hld,3.65
2023-10-12T06:38:00,hld,3.67
2023-10-12T06:39:00,hld,3.67
2023-10-12T06:40:00,hld,3.66
2023-10-12T06:41:00,hld,3.65
2023-10-12T06:42:00,hld,3.65
2023-10-12T06:43:00,hld,3.64
2023-10-12T06:44:00,hld,3.68
2023-10-12T06:45:00,hld,3.65
2023-10-12T06:46:00,hld,3.58
2023-10-12T06:47:00,hld,3.28
2023-10-12T06:48:00,hld,3.26
2023-10-12T06:49:00,hld,4.05
2023-10-12T06:50:00,hld,3.40
2023-10-12T06:51:00,hld,3.36
2023-10-12T06:52:00,hld,3.37
2023-10-12T06:53:00,hld,3.36
2023-10-12T06:54:00,hld,3.35
2023-10-12T06:55:00,hld,3.36
2023-10-12T06:56:00,hld,3.36
2023-10-12T06:57:00,hld,3.36
2023-10-12T06:58:00,hld,3.31
2023-10-12T06:59:00,hld,3.32
2023-10-12T07:00:00,hld,3.34
2023-10-12T07:01:00,hld,3.32
2023-10-12T07:02:00,hld,3.32
2023-10-12T07:03:00,hld,3.10
2023-10-12T07:04:00,hld,2.78
2023-10-12T07:05:00,hld,2.78
2023-10-12T07:06:00,hld,2.75
2023-10-12T07:07:00,hld,2.75
2023-10-12T07:08:00,hld,2.62
2023-10-12T07:09:00,hld,2.62
2023-10-12T07:10:00,hld,2.64
2023-10-12T07:11:00,hld,2.65
2023-10-12T07:12:00,hld,3.09
2023-10-12T07:13:00,hld,3.08
2023-10-12T07:14:00,hld,3.06
2023-10-12T07:15:00,hld,3.06
2023-10-12T07:16:00,hld,3.06
2023-10-12T07:17:00,hld,3.05
2023-10-12T07:18:00,hld,3.05
2023-10-12T07:19:00,hld,3.05
2023-10-12T07:20:00,hld,3.10
2023-10-12T07:21:00,hld,3.06
2023-10-12T07:22:00,hld,3.47
2023-10-12T07:23:00,hld,3.06
2023-10-12T07:24:00,hld,3.06
2023-10-12T07:25:00,hld,2.62
2023-10-12T07:26:00,hld,2.60
2023-10-12T07:27:00,hld,2.62
2023-10-12T07:28:00,hld,2.62
2023-10-12T07:29:00,hld,2.80
2023-10-12T07:30:00,hld,2.77
2023-10-12T07:31:00,hld,2.79
2023-10-12T07:32:00,hld,2.77
2023-10-12T07:33:00,hld,2.78
2023-10-12T07:34:00,hld,3.20
2023-10-12T07:35:00,hld,2.78
2023-10-12T07:36:00,hld,2.75
2023-10-12T07:37:00,hld,2.78
2023-10-12T07:38:00,hld,2.78
2023-10-12T07:39:00,hld,2.77
2023-10-12T07:40:00,hld,2.77
2023-10-12T07:41:00,hld,11.22
2023-10-12T07:42:00,hld,11.11
2023-10-12T07:43:00,hld,10.94
2023-10-12T07:44:00,hld,10.80
2023-10-12T07:45:00,hld,2.77
2023-10-12T07:46:00,hld,2.86
2023-10-12T07:47:00,hld,2.78
2023-10-12T07:48:00,hld,2.78
2023-10-12T07:49:00,hld,2.79
2023-10-12T07:50:00,hld,2.79
2023-10-12T07:51:00,hld,2.80
2023-10-12T07:52:00,hld,2.77
2023-10-12T07:53:00,hld,2.81
2023-10-12T07:54:00,hld,2.76
2023-10-12T07:55:00,hld,2.81
2023-10-12T07:56:00,hld,2.94
2023-10-12T07:57:00,hld,5.05
2023-10-12T07:58:00,hld,5.29
2023-10-12T07:59:00,hld,5.59
2023-10-12T08:00:00,hld,5.24
2023-10-12T08:01:00,hld,5.26
2023-10-12T08:02:00,hld,5.26
2023-10-12T08:03:00,hld,5.24
2023-10-12T08:04:00,hld,5.25
2023-10-12T08:05:00,hld,5.25
2023-10-12T08:06:00,hld,5.27
2023-10-12T08:07:00,hld,5.63
2023-10-12T08:08:00,hld,5.13
2023-10-12T08:09:00,hld,5.14
2023-10-12T08:10:00,hld,5.14
2023-10-12T08:11:00,hld,5.12
2023-10-12T08:12:00,hld,5.13
2023-10-12T08:13:00,hld,5.65
2023-10-12T08:14:00,hld,6.44
2023-10-12T08:15:00,hld,5.00
2023-10-12T08:16:00,hld,5.31
2023-10-12T08:17:00,hld,5.31
2023-10-12T08:18:00,hld,5.38
2023-10-12T08:19:00,hld,5.52
2023-10-12T08:20:00,hld,5.62
2023-10-12T08:21:00,hld,5.66
2023-10-12T08:22:00,hld,5.90
2023-10-12T08:23:00,hld,6.15
2023-10-12T08:24:00,hld,6.20
2023-10-12T08:25:00,hld,6.17
2023-10-12T08:26:00,hld,6.13
2023-10-12T08:27:00,hld,6.14
2023-10-12T08:28:00,hld,6.15
2023-10-12T08:29:00,hld,6.11
2023-10-12T08:30:00,hld,6.10
2023-10-12T08:31:00,hld,6.06
2023-10-12T08:32:00,hld,6.58
2023-10-12T08:33:00,hld,6.07
2023-10-12T08:34:00,hld,6.11
2023-10-12T08:35:00,hld,6.11
2023-10-12T08:36:00,hld,6.14
2023-10-12T08:37:00,hld,6.15
2023-10-12T08:38:00,hld,6.09
2023-10-12T08:39:00,hld,6.04
2023-10-12T08:40:00,hld,6.67
2023-10-12T08:41:00,hld,6.05
2023-10-12T08:42:00,hld,6.02
2023-10-12T08:43:00,hld,6.03
2023-10-12T08:44:00,hld,6.23
2023-10-12T08:45:00,hld,6.15
2023-10-12T08:46:00,hld,6.15
2023-10-12T08:47:00,hld,6.18
2023-10-12T08:48:00,hld,6.16
2023-10-12T08:49:00,hld,6.74
2023-10-12T08:50:00,hld,6.55
2023-10-12T08:51:00,hld,6.48
2023-10-12T08:52:00,hld,6.49
2023-10-12T08:53:00,hld,6.54
2023-10-12T08:54:00,hld,6.52
2023-10-12T08:55:00,hld,6.53
2023-10-12T08:56:00,hld,6.49
2023-10-12T08:57:00,hld,6.47
2023-10-12T08:58:00,hld,6.44
2023-10-12T08:59:00,hld,6.35
2023-10-12T09:00:00,hld,6.36
2023-10-12T09:01:00,hld,7.29
2023-10-12T09:02:00,hld,6.51
2023-10-12T09:03:00,hld,6.47
2023-10-12T09:04:00,hld,6.49
2023-10-12T09:05:00,hld,6.40
2023-10-12T09:06:00,hld,6.39
2023-10-12T09:07:00,hld,6.39
2023-10-12T09:08:00,hld,6.43
2023-10-12T09:09:00,hld,6.51
2023-10-12T09:10:00,hld,7.03
2023-10-12T09:11:00,hld,6.57
2023-10-12T09:12:00,hld,7.19
2023-10-12T09:13:00,hld,6.57
2023-10-12T09:14:00,hld,6.56
2023-10-12T09:15:00,hld,6.57
2023-10-12T09:16:00,hld,6.57
2023-10-12T09:17:00,hld,7.08
2023-10-12T09:18:00,hld,6.56
2023-10-12T09:19:00,hld,6.58
2023-10-12T09:20:00,hld,6.54
2023-10-12T09:21:00,hld,6.58
2023-10-12T09:22:00,hld,6.60
2023-10-12T09:23:00,hld,6.61
2023-10-12T09:24:00,hld,6.55
2023-10-12T09:25:00,hld,6.58
2023-10-12T09:26:00,hld,6.54
2023-10-12T09:27:00,hld,6.61
2023-10-12T09:28:00,hld,10.67
2023-10-12T09:29:00,hld,10.57
2023-10-12T09:30:00,hld,10.60
2023-10-12T09:31:00,hld,10.62
2023-10-12T09:32:00,hld,10.60
2023-10-12T09:33:00,hld,6.56
2023-10-12T09:34:00,hld,6.57
2023-10-12T09:35:00,hld,6.61
2023-10-12T09:36:00,hld,6.57
2023-10-12T09:37:00,hld,6.39
2023-10-12T09:38:00,hld,6.26
2023-10-12T09:39:00,hld,7.40
2023-10-12T09:40:00,hld,7.87
2023-10-12T09:41:00,hld,9.85
2023-10-12T09:42:00,hld,9.81
2023-10-12T09:43:00,hld,9.84
2023-10-12T09:44:00,hld,9.81
2023-10-12T09:45:00,hld,9.76
2023-10-12T09:46:00,hld,9.68
2023-10-12T09:47:00,hld,9.95
2023-10-12T09:48:00,hld,9.87
2023-10-12T09:49:00,hld,10.17
2023-10-12T09:50:00,hld,9.89
2023-10-12T09:51:00,hld,9.84
2023-10-12T09:52:00,hld,9.84
2023-10-12T09:53:00,hld,9.79
2023-10-12T09:54:00,hld,9.78
2023-10-12T09:55:00,hld,11.24
2023-10-12T09:56:00,hld,9.72
2023-10-12T09:57:00,hld,9.70
2023-10-12T09:58:00,hld,9.60
2023-10-12T09:59:00,hld,9.58
2023-10-12T10:00:00,hld,9.63
2023-10-12T10:01:00,hld,9.57
2023-10-12T10:02:00,hld,9.54
2023-10-12T10:03:00,hld,9.22
2023-10-12T10:04:00,hld,9.21
2023-10-12T10:05:00,hld,9.22
2023-10-12T10:06:00,hld,9.27
2023-10-12T10:07:00,hld,9.40
2023-10-12T10:08:00,hld,9.41
2023-10-12T10:09:00,hld,9.38
2023-10-12T10:10:00,hld,9.45
2023-10-12T10:11:00,hld,9.52
2023-10-12T10:12:00,hld,9.46
2023-10-12T10:13:00,hld,9.43
2023-10-12T10:14:00,hld,9.44
2023-10-12T10:15:00,hld,9.50
2023-10-12T10:16:00,hld,9.59
2023-10-12T10:17:00,hld,9.61
2023-10-12T10:18:00,hld,9.73
2023-10-12T10:19:00,hld,9.75
2023-10-12T10:20:00,hld,9.68
2023-10-12T10:21:00,hld,9.64
2023-10-12T10:22:00,hld,9.68
2023-10-12T10:23:00,hld,9.70
2023-10-12T10:24:00,hld,11.07
2023-10-12T10:25:00,hld,11.12
2023-10-12T10:26:00,hld,9.70
2023-10-12T10:27:00,hld,9.58
2023-10-12T10:28:00,hld,9.66
2023-10-12T10:29:00,hld,9.69
2023-10-12T10:30:00,hld,10.36
2023-10-12T10:31:00,hld,9.74
2023-10-12T10:32:00,hld,9.67
2023-10-12T10:33:00,hld,9.59
2023-10-12T10:34:00,hld,9.52
2023-10-12T10:35:00,hld,9.14
2023-10-12T10:36:00,hld,8.83
2023-10-12T10:37:00,hld,8.84
2023-10-12T10:38:00,hld,8.86
2023-10-12T10:39:00,hld,8.84
2023-10-12T10:40:00,hld,8.79
2023-10-12T10:41:00,hld,8.83
2023-10-12T10:42:00,hld,8.84
2023-10-12T10:43:00,hld,8.87
2023-10-12T10:44:00,hld,12.93
2023-10-12T10:45:00,hld,12.91
2023-10-12T10:46:00,hld,12.95
2023-10-12T10:47:00,hld,13.12
2023-10-12T10:48:00,hld,14.17
2023-10-12T10:49:00,hld,10.04
2023-10-12T10:50:00,hld,10.06
2023-10-12T10:51:00,hld,8.95
2023-10-12T10:52:00,hld,8.97
2023-10-12T10:53:00,hld,8.99
2023-10-12T10:54:00,hld,8.88
2023-10-12T10:55:00,hld,8.87
2023-10-12T10:56:00,hld,8.72
2023-10-12T10:57:00,hld,8.83
2023-10-12T10:58:00,hld,8.82
2023-10-12T10:59:00,hld,8.86
2023-10-12T11:00:00,hld,8.83
2023-10-12T11:01:00,hld,8.75
2023-10-12T11:02:00,hld,8.78
2023-10-12T11:03:00,hld,9.05
2023-10-12T11:04:00,hld,9.10
2023-10-12T11:05:00,hld,9.06
2023-10-12T11:06:00,hld,9.00
2023-10-12T11:07:00,hld,9.05
2023-10-12T11:08:00,hld,9.19
2023-10-12T11:09:00,hld,9.43
2023-10-12T11:10:00,hld,9.60
2023-10-12T11:11:00,hld,9.54
2023-10-12T11:12:00,hld,9.48
2023-10-12T11:13:00,hld,9.51
2023-10-12T11:14:00,hld,9.48
2023-10-12T11:15:00,hld,10.33
2023-10-12T11:16:00,hld,10.32
2023-10-12T11:17:00,hld,9.52
2023-10-12T11:18:00,hld,10.62
2023-10-12T11:19:00,hld,10.83
2023-10-12T11:20:00,hld,10.84
2023-10-12T11:21:00,hld,10.87
2023-10-12T11:22:00,hld,10.82
2023-10-12T11:23:00,hld,10.87
2023-10-12T11:24:00,hld,10.81
2023-10-12T11:25:00,hld,10.90
2023-10-12T11:26:00,hld,11.57
2023-10-12T11:27:00,hld,10.73
2023-10-12T11:28:00,hld,10.69
2023-10-12T11:29:00,hld,10.65
2023-10-12T11:30:00,hld,10.65
2023-10-12T11:31:00,hld,10.65
2023-10-12T11:32:00,hld,10.66
2023-10-12T11:33:00,hld,10.72
2023-10-12T11:34:00,hld,10.45
2023-10-12T11:35:00,hld,10.46
2023-10-12T11:36:00,hld,12.09
2023-10-12T11:37:00,hld,18.99
2023-10-12T11:38:00,hld,19.30
2023-10-12T11:39:00,hld,18.67
2023-10-12T11:40:00,hld,18.65
2023-10-12T11:41:00,hld,18.51
2023-10-12T11:42:00,hld,10.48
2023-10-12T11:43:00,hld,10.50
2023-10-12T11:44:00,hld,10.83
2023-10-12T11:45:00,hld,10.62
2023-10-12T11:46:00,hld,10.69
2023-10-12T11:47:00,hld,10.75
2023-10-12T11:48:00,hld,10.77
2023-10-12T11:49:00,hld,11.46
2023-10-12T11:50:00,hld,10.72
2023-10-12T11:51:00,hld,10.75
2023-10-12T11:52:00,hld,12.44
2023-10-12T11:53:00,hld,12.47
2023-10-12T11:54:00,hld,10.99
2023-10-12T11:55:00,hld,10.80
2023-10-12T11:56:00,hld,14.77
2023-10-12T11:57:00,hld,14.74
2023-10-12T11:58:00,hld,14.75
2023-10-12T11:59:00,hld,14.73
2023-10-12T12:00:00,hld,10.63
2023-10-12T12:01:00,hld,10.63
2023-10-12T12:02:00,hld,10.61
2023-10-12T12:03:00,hld,10.62
2023-10-12T12:04:00,hld,10.60
2023-10-12T12:05:00,hld,10.63
2023-10-12T12:06:00,hld,10.91
2023-10-12T12:07:00,hld,10.51
2023-10-12T12:08:00,hld,10.45
2023-10-12T12:09:00,hld,10.43
2023-10-12T12:10:00,hld,10.44
2023-10-12T12:11:00,hld,10.42
2023-10-12T12:12:00,hld,10.46
2023-10-12T12:13:00,hld,10.63
2023-10-12T12:14:00,hld,10.61
2023-10-12T12:15:00,hld,10.64
2023-10-12T12:16:00,hld,10.52
2023-10-12T12:17:00,hld,10.53
2023-10-12T12:18:00,hld,10.60
2023-10-12T12:19:00,hld,10.63
2023-10-12T12:20:00,hld,11.13
2023-10-12T12:21:00,hld,10.56
2023-10-12T12:22:00,hld,10.55
2023-10-12T12:23:00,hld,10.44
2023-10-12T12:24:00,hld,10.07
2023-10-12T12:25:00,hld,10.07
2023-10-12T12:26:00,hld,10.17
2023-10-12T12:27:00,hld,10.02
2023-10-12T12:28:00,hld,9.95
2023-10-12T12:29:00,hld,9.92
2023-10-12T12:30:00,hld,9.93
2023-10-12T12:31:00,hld,10.01
2023-10-12T12:32:00,hld,9.98
2023-10-12T12:33:00,hld,9.65
2023-10-12T12:34:00,hld,9.54
2023-10-12T12:35:00,hld,9.57
2023-10-12T12:36:00,hld,9.51
2023-10-12T12:37:00,hld,9.45
2023-10-12T12:38:00,hld,9.46
2023-10-12T12:39:00,hld,10.05
2023-10-12T12:40:00,hld,10.04
2023-10-12T12:41:00,hld,10.07
2023-10-12T12:42:00,hld,10.00
2023-10-12T12:43:00,hld,10.15
2023-10-12T12:44:00,hld,10.14
2023-10-12T12:45:00,hld,11.42
2023-10-12T12:46:00,hld,15.46
2023-10-12T12:47:00,hld,15.73
2023-10-12T12:48:00,hld,15.42
2023-10-12T12:49:00,hld,15.42
2023-10-12T12:50:00,hld,11.43
2023-10-12T12:51:00,hld,9.94
2023-10-12T12:52:00,hld,9.94
2023-10-12T12:53:00,hld,9.90
2023-10-12T12:54:00,hld,9.94
2023-10-12T12:55:00,hld,15.67
2023-10-12T12:56:00,hld,10.04
2023-10-12T12:57:00,hld,9.93
2023-10-12T12:58:00,hld,10.59
2023-10-12T12:59:00,hld,10.51
2023-10-12T13:00:00,hld,10.23
2023-10-12T13:01:00,hld,10.21
2023-10-12T13:02:00,hld,10.23
2023-10-12T13:03:00,hld,10.88
2023-10-12T13:04:00,hld,10.25
2023-10-12T13:05:00,hld,10.24
2023-10-12T13:06:00,hld,10.22
2023-10-12T13:07:00,hld,10.25
2023-10-12T13:08:00,hld,10.19
2023-10-12T13:09:00,hld,10.27
2023-10-12T13:10:00,hld,10.25
2023-10-12T13:11:00,hld,10.14
2023-10-12T13:12:00,hld,10.11
2023-10-12T13:13:00,hld,10.60
2023-10-12T13:14:00,hld,10.14
2023-10-12T13:15:00,hld,10.15
2023-10-12T13:16:00,hld,10.09
2023-10-12T13:17:00,hld,10.13
2023-10-12T13:18:00,hld,10.16
2023-10-12T13:19:00,hld,10.14
2023-10-12T13:20:00,hld,10.30
2023-10-12T13:21:00,hld,10.23
2023-10-12T13:22:00,hld,10.21
2023-10-12T13:23:00,hld,10.19
2023-10-12T13:24:00,hld,9.79
2023-10-12T13:25:00,hld,10.03
2023-10-12T13:26:00,hld,9.97
2023-10-12T13:27:00,hld,9.98
2023-10-12T13:28:00,hld,10.02
2023-10-12T13:29:00,hld,10.04
2023-10-12T13:30:00,hld,10.06
2023-10-12T13:31:00,hld,9.89
2023-10-12T13:32:00,hld,9.85
2023-10-12T13:33:00,hld,9.86
2023-10-12T13:34:00,hld,9.83
2023-10-12T13:35:00,hld,9.95
2023-10-12T13:36:00,hld,9.96
2023-10-12T13:37:00,hld,9.88
2023-10-12T13:38:00,hld,9.91
2023-10-12T13:39:00,hld,9.97
2023-10-12T13:40:00,hld,9.98
2023-10-12T13:41:00,hld,9.98